If you wish to contribute or participate in the discussions about articles you are invited to join SKYbrary as a registered user

GCGM

From SKYbrary Wiki

Revision as of 19:01, 28 November 2011 by Timo.Kouwenhoven (Talk | contribs)
(diff) ← Older revision | Latest revision (diff) | Newer revision → (diff)
Jump to: navigation, search
Airport
Code GCGM
Name La Gomera
Region Europe
Territory Canary Islands ES.gif
Location San Sebastián de la Gomera
Elevation

218.236801 m716 ft

Coordinates 28° 1' 50" N, 17° 12' 45" W
All Airports
in GC
GCFV, GCGM, GCHI, GCLA, GCLP, GCRR, GCTS, GCXO
Runways
Designator Length Width Surface
9/27 1500 m4,921.26 ft 30 m98.425 ft ASP


METAR
Observation GCGM 040800Z 25004KT 190V290 9999 FEW030 22/19 Q1018 RMK CAB09 VRB02KT
Station La Gomera
Elevation 0 metres
Date/Time 04 August 2014 08:00:00
Wind direction 250°
Wind speed 04 kts
Clouds few clouds
Clouds code FEW
Temperature 22°C
Dew point 19°C
Humidity 83%
QNH 1018 hPa
Weather condition n/a


WX
Tag(s) Volcanic Ash

La Gomera Airport (IATA: GMZ) is an airport located near the village of Alajeró, Spain, 34 km18.359 nm
34,000 m
111,548.557 ft
southwest by road from the Gomera island's capital city, San Sebastián de la Gomera.

Personal tools